ISS OBJECT XY

Last updated on Sun Jun 21 2026 00:02:11 GMT+0000 (Coordinated Universal Time)

1 66912U 98067XY 26171.41049138 .00615601 18512-3 10319-2 0 9996 2 66912 51.6153 256.8734 0011963 336.4641 23.5821 16.02110117 31363
UTC large
Height (km)
Speed (km/s)
/
Latitude / Longitude
Inclination (degrees)
Orbital Period (minutes)
Azimuth
Elevation
Range (km)
Doppler Factor

Next 0 passes for location: London (51.5072 / 0.1276)

No passes found over London.
ISS OBJECT XY